Date String (YYYY-MM-DD hh:mm:ss) UTC,Instrument flags,Ambient pressure (hPa),Sample flow (lpm),Bypass flow (lpm),Sample temperature (°C),Ambient temperature (°C),ASC tube jacket temperature (°C),LED temperature (°C),Box temperature (°C),Sample RH (%),Span deviation,Mass concentration (μg/m³),Mass concentration (μg/m³),Mass concentration (μg/m³)
DateTimeUTC,F1_M11,P_M11,Q1_M11,Q2_M11,T1_M11,T2_M11,T3_M11,T4_M11,T5_M11,U1_M11,ZSPAN_M11,X0_M11,X2_M11,X1_M11
2023-01-12 01:00:00,,0825.4,5.00,0.00,22.3,20.9,00.0,31.3,24.1,21.0,-001.7,0009.95,0008.31,0008.15
2023-01-12 01:01:00,,0825.5,5.00,0.00,22.3,20.8,00.0,31.3,24.1,20.9,-001.6,0009.96,0008.33,0008.18
2023-01-12 01:02:00,,0825.5,5.00,0.00,22.3,20.8,00.0,31.3,24.0,21.0,-001.7,0009.95,0008.34,0008.19
2023-01-12 01:03:00,,0825.6,5.00,0.00,22.3,20.7,00.0,31.3,24.0,21.0,-001.7,0009.96,0008.36,0008.21
2023-01-12 01:04:00,,0825.6,5.00,0.00,22.3,20.7,00.0,31.3,24.0,21.0,-001.9,0009.97,0008.39,0008.24
2023-01-12 01:05:00,,0825.6,5.00,0.00,22.2,20.7,00.0,31.2,24.0,21.0,-001.7,0009.98,0008.42,0008.28
2023-01-12 01:06:00,,0825.6,4.99,0.00,22.2,20.6,00.0,31.2,23.9,21.0,-001.5,0009.93,0008.42,0008.29
2023-01-12 01:07:00,,0825.5,5.00,0.00,22.3,21.1,00.0,31.2,24.1,20.9,-001.2,0009.89,0008.41,0008.29
2023-01-12 01:08:00,,0825.5,5.00,0.00,22.4,22.0,00.0,31.2,24.3,20.8,-001.0,0010.40,0008.42,0008.30
2023-01-12 01:09:00,,0825.6,4.99,0.00,22.5,22.6,00.0,31.2,24.5,20.7,-001.2,0010.41,0008.42,0008.32
2023-01-12 01:10:00,,0825.6,4.99,0.00,22.5,22.2,00.0,31.2,24.4,20.7,-001.1,0010.34,0008.40,0008.33
2023-01-12 01:11:00,,0825.6,5.00,0.00,22.5,21.9,00.0,31.3,24.4,20.6,-000.9,0010.35,0008.43,0008.36
2023-01-12 01:12:00,,0825.6,5.00,0.00,22.5,21.7,00.0,31.3,24.3,20.6,-001.0,0010.38,0008.46,0008.40
2023-01-12 01:13:00,,0825.6,4.99,0.00,22.5,21.5,00.0,31.3,24.3,20.6,-000.9,0010.36,0008.45,0008.40
2023-01-12 01:14:00,,0825.6,5.00,0.00,22.4,21.3,00.0,31.3,24.2,20.6,-000.7,0010.31,0008.43,0008.39
2023-01-12 01:15:00,,0825.6,4.99,0.00,22.4,21.1,00.0,31.3,24.1,20.6,-000.7,0010.31,0008.44,0008.39
2023-01-12 01:16:00,,0825.7,5.00,0.00,22.4,20.9,00.0,31.3,24.1,20.6,-000.8,0010.39,0008.48,0008.43
2023-01-12 01:17:00,,0825.7,5.00,0.00,22.4,20.8,00.0,31.3,24.0,20.6,-001.4,0010.48,0008.55,0008.48
2023-01-12 01:18:00,,0825.7,5.01,0.00,22.3,20.8,00.0,31.3,24.0,20.6,-001.3,0010.59,0008.62,0008.54
2023-01-12 01:19:00,,0825.9,4.99,0.00,22.3,20.7,00.0,31.3,24.0,20.6,-001.4,0010.16,0008.70,0008.60
2023-01-12 01:20:00,,0825.8,5.01,0.00,22.3,20.6,00.0,31.3,24.0,20.6,-001.3,0010.30,0008.82,0008.70
2023-01-12 01:21:00,,0825.7,5.00,0.00,22.3,20.6,00.0,31.3,24.0,20.7,-001.1,0010.46,0008.90,0008.78
2023-01-12 01:22:00,,0825.7,5.01,0.00,22.2,20.6,00.0,31.3,23.9,20.8,-001.2,0010.55,0008.97,0008.83
2023-01-12 01:23:00,,0825.7,5.00,0.00,22.2,20.6,00.0,31.2,23.9,20.7,-000.9,0010.63,0009.05,0008.90
2023-01-12 01:24:00,,0825.8,5.00,0.00,22.2,20.6,00.0,31.2,23.9,20.6,-000.8,0010.77,0009.15,0008.99
2023-01-12 01:25:00,,0825.9,5.00,0.00,22.2,20.6,00.0,31.2,23.9,20.6,-001.0,0010.92,0009.25,0009.09
2023-01-12 01:26:00,,0825.9,4.99,0.00,22.2,20.5,00.0,31.2,23.8,20.6,-000.8,0011.04,0009.34,0009.17
2023-01-12 01:27:00,,0826.1,5.00,0.00,22.1,20.5,00.0,31.2,23.8,20.7,-000.4,0011.09,0009.38,0009.20
2023-01-12 01:28:00,,0825.7,4.99,0.00,22.1,20.4,00.0,31.2,23.8,20.7,0000.2,0011.12,0009.41,0009.21
2023-01-12 01:29:00,,0825.8,5.00,0.00,22.1,20.4,00.0,31.1,23.7,20.7,0000.1,0011.11,0009.42,0009.23
2023-01-12 01:30:00,,0825.9,5.00,0.00,22.1,20.4,00.0,31.1,23.7,20.7,0000.0,0011.09,0009.41,0009.22
2023-01-12 01:31:00,,0825.8,5.00,0.00,22.0,20.4,00.0,31.1,23.7,20.7,-000.0,0010.99,0009.33,0009.16
2023-01-12 01:32:00,,0825.9,5.01,0.00,22.0,20.4,00.0,31.1,23.7,20.7,-000.2,0010.93,0009.29,0009.09
2023-01-12 01:33:00,,0826.0,5.00,0.00,22.1,21.1,00.0,31.1,23.9,20.7,-000.0,0010.87,0009.25,0009.04
2023-01-12 01:34:00,,0826.0,5.00,0.00,22.2,22.1,00.0,31.0,24.1,20.6,-000.0,0010.79,0009.19,0008.99
2023-01-12 01:35:00,,0826.0,4.99,0.00,22.3,22.7,00.0,31.1,24.3,20.4,-000.2,0010.75,0009.15,0008.95
2023-01-12 01:36:00,,0825.9,4.99,0.00,22.4,22.4,00.0,31.1,24.3,20.3,-000.0,0010.72,0009.12,0008.90
2023-01-12 01:37:00,,0826.0,5.00,0.00,22.4,22.0,00.0,31.2,24.2,20.3,0000.1,0010.67,0009.09,0008.85
2023-01-12 01:38:00,,0826.0,5.00,0.00,22.4,21.6,00.0,31.2,24.2,20.3,0000.0,0010.59,0009.03,0008.80
2023-01-12 01:39:00,,0826.1,5.01,0.00,22.4,21.4,00.0,31.2,24.1,20.3,0000.0,0010.52,0008.98,0008.76
2023-01-12 01:40:00,,0826.1,4.99,0.00,22.3,21.3,00.0,31.2,24.1,20.3,0000.3,0010.51,0008.95,0008.71
2023-01-12 01:41:00,,0826.2,5.01,0.00,22.3,21.2,00.0,31.2,24.1,20.4,0000.7,0010.52,0008.94,0008.69
2023-01-12 01:42:00,,0826.1,4.99,0.00,22.3,21.1,00.0,31.2,24.1,20.5,0000.2,0010.61,0008.99,0008.72
2023-01-12 01:43:00,,0826.2,5.00,0.00,22.3,21.0,00.0,31.2,24.1,20.5,0000.3,0010.60,0009.00,0008.75
2023-01-12 01:44:00,,0826.2,5.01,0.00,22.3,21.0,00.0,31.2,24.1,20.4,0000.3,0010.59,0009.02,0008.79
2023-01-12 01:45:00,,0826.2,5.00,0.00,22.3,21.0,00.0,31.2,24.1,20.4,0000.3,0010.62,0009.06,0008.83
2023-01-12 01:46:00,,0826.1,5.00,0.00,22.3,21.1,00.0,31.2,24.1,20.4,0000.6,0010.61,0009.08,0008.86
2023-01-12 01:47:00,,0826.1,5.01,0.00,22.3,21.1,00.0,31.2,24.1,20.4,0000.7,0010.96,0009.10,0008.88
2023-01-12 01:48:00,,0826.2,4.99,0.00,22.3,21.1,00.0,31.2,24.1,20.4,0000.5,0011.06,0009.15,0008.91
2023-01-12 01:49:00,,0826.1,4.98,0.00,22.3,21.2,00.0,31.2,24.1,20.4,0000.2,0011.13,0009.20,0008.96
2023-01-12 01:50:00,,0826.1,4.98,0.00,22.3,21.2,00.0,31.2,24.1,20.4,-000.4,0011.21,0009.25,0008.99
2023-01-12 01:51:00,,0826.2,4.98,0.00,22.3,21.1,00.0,31.2,24.1,20.3,-000.6,0011.26,0009.30,0009.04
2023-01-12 01:52:00,,0826.2,5.02,0.00,22.3,21.0,00.0,31.2,24.1,20.4,-000.9,0011.25,0009.32,0009.07
2023-01-12 01:53:00,,0826.2,5.01,0.00,22.3,21.0,00.0,31.2,24.1,20.5,-000.5,0011.22,0009.31,0009.08
2023-01-12 01:54:00,,0826.2,5.00,0.00,22.3,20.9,00.0,31.2,24.0,20.4,-000.4,0011.22,0009.33,0009.10
2023-01-12 01:55:00,,0826.2,5.01,0.00,22.3,20.9,00.0,31.2,24.0,20.5,-000.6,0011.20,0009.33,0009.10
2023-01-12 01:56:00,,0826.2,5.00,0.00,22.3,20.9,00.0,31.2,24.0,20.5,-000.3,0011.17,0009.32,0009.10
2023-01-12 01:57:00,,0826.3,5.00,0.00,22.3,20.9,00.0,31.2,24.0,20.5,-000.3,0011.20,0009.34,0009.11
2023-01-12 01:58:00,,0826.4,4.99,0.00,22.3,20.9,00.0,31.2,24.0,20.5,-000.4,0010.87,0009.34,0009.11
2023-01-12 01:59:00,,0826.4,5.00,0.00,22.2,20.9,00.0,31.2,24.0,20.5,-000.2,0010.69,0009.30,0009.09
